Location: Columbia
(38.9520°N, 92.3340°W)
Time: 15:41:26
(UTC-05:00)

Daily predictions for brighter satellites

Satellite Brightness Start Highest point End
(mag) Time Altitude Azimuth Time Altitude Azimuth Time Altitude Azimuth
Cosmos 1818 3.7 20:43:20 10° SSW 20:48:37 57° ESE 20:53:58 10° NE
Cosmos 1544 Rocket 3.7 20:45:55 10° N 20:50:11 54° E 20:54:23 10° SSE
RESURS DK-1 2.5 20:46:11 10° SSW 20:50:17 85° WNW 20:54:27 10° NNE
Cosmos 405 Rocket 4.0 20:48:08 10° SE 20:50:59 21° E 20:53:53 10° NE
Okean 1 3.3 20:49:30 10° S 20:53:25 69° E 20:57:23 10° NNE
NOSS 2-2 (D) 3.8 20:50:12 10° S 20:53:54 39° ESE 20:57:58 10° NE
Resurs 01 Rocket 2.2 20:49:56 10° S 20:54:18 61° W 20:58:43 10° NNW
Cosmos 1975 3.0 20:54:07 10° N 20:58:08 58° E 21:02:09 10° SSE
Cosmos 773 Rocket 4.0 20:54:20 10° S 20:59:25 64° ESE 21:04:30 10° NNE
Cosmos 1943 Rocket 2.2 20:54:53 10° NNW 21:00:32 89° ENE 21:06:05 10° SSE
CENTAUR R/B 3.5 20:53:25 10° NNW 21:01:07 53° NE 21:09:18 10° SE
USA 81 4.3 20:57:45 10° SSE 21:02:50 52° E 21:07:58 10° NNE
Cosmos 1500 3.1 21:00:29 10° N 21:04:16 82° E 21:08:00 10° S
PSLV R/B 3.6 21:03:26 10° W 21:06:31 58° N 21:09:37 10° ENE
Cosmos 292 Rocket 4.0 21:05:38 10° SSW 21:10:27 78° WNW 21:15:18 10° NNE
Helios 1B rocket 2.4 21:07:36 10° NNE 21:11:45 76° ESE 21:15:52 10° S
Cosmos 1939 Rocket 2.8 21:08:40 10° SSE 21:12:29 63° ENE 21:16:19 10° N
NOSS 2-2 (C) 3.4 21:08:40 10° SSW 21:12:36 65° ESE 21:16:59 10° NE
COSMOS 2406 3.4 21:09:26 10° S 21:14:56 49° ESE 21:20:26 10° NNE
Cosmos 1455 Rocket 3.0 21:11:10 10° N 21:15:34 89° E 21:19:52 10° S
COSMOS 2455 2.9 21:10:16 10° NNW 21:16:18 85° WSW 21:22:18 10° SSE
SL-27 R/B 3.8 21:14:28 11° SSE 21:17:06 22° E 21:19:58 10° NE
Cosmos 1680 Rocket 3.7 21:17:14 10° S 21:22:14 48° ESE 21:27:14 10° NNE
SPOT 5 4.2 21:23:04 13° ESE 21:25:34 21° ENE 21:28:48 10° NNE
Cosmos 1346 3.2 21:23:25 13° SSE 21:25:39 42° E 21:28:18 10° NNE
Cosmos 1743 2.7 21:25:29 10° N 21:29:21 66° E 21:32:38 14° SSE
Cosmos 405 4.3 21:30:35 10° NNE 21:33:34 24° ENE 21:34:57 19° ESE
Envisat 3.5 21:30:37 10° S 21:35:37 59° W 21:40:39 10° NNW
ASTRO E2 3.8 21:33:13 10° WSW 21:36:36 27° S 21:38:12 20° SSE
Terra 4.1 21:38:26 10° ENE 21:39:17 10° ENE 21:40:08 10° NE
ASTEX 1 3.5 21:36:30 14° SSE 21:40:36 62° E 21:45:27 10° N
Tiangong 2 1.1 21:40:23 10° SW 21:43:29 53° SSE 21:45:36 18° E
MetOp-B 4.5 21:40:01 18° SE 21:43:42 49° ENE 21:48:52 10° N
CRYOSAT 2 4.4 21:42:57 17° SSE 21:46:40 64° E 21:51:27 10° N
Cosmos 2327 Rocket 4.5 21:41:37 10° N 21:47:49 79° E 21:53:13 14° S
Cosmos 1437 Rocket 4.1 21:45:19 10° NNE 21:48:26 23° ENE 21:49:25 21° E
Aureole 3 Rocket 3.9 21:41:57 10° S 21:49:01 87° W 21:54:00 10° N
Okean 1-7 Rocket 3.7 21:46:16 18° SSE 21:49:24 53° E 21:53:47 10° NNE
Okean 2 4.1 21:50:04 26° SE 21:51:32 34° E 21:55:16 10° NNE
Cosmos 1238 Rocket 4.1 21:46:36 10° S 21:53:12 70° E 21:59:49 10° NNE
Aureole 1 Rocket 2.2 21:51:23 10° SSW 21:54:55 86° ESE 21:57:58 10° NNE
ISS -3.9 21:52:43 10° SW 21:55:57 59° SE 21:59:12 10° ENE
Meteor 2-9 Rocket 4.2 21:50:39 10° N 21:56:06 69° E 21:59:47 22° SSE
Cosmos 1666 2.7 21:56:03 10° N 21:59:48 77° W 22:01:54 24° S
Meteor 2-4 Rocket 3.7 21:56:05 10° S 22:01:40 88° W 22:07:29 10° N
DNEPR-1 R/B 3.6 21:58:16 10° NNW 22:02:31 74° ENE 22:04:38 31° SE
Cosmos 1892 Rocket 4.5 22:01:37 28° ESE 22:02:31 30° E 22:06:24 10° NNE
Cosmos 1371 Rocket 4.5 22:00:37 10° N 22:05:46 48° ENE 22:08:06 29° SE
DEBRIS 4.4 22:02:33 10° WSW 22:06:10 63° NNW 22:18:47 10° ENE
OAO 2 Rocket 3.4 22:02:56 10° WSW 22:07:46 54° S 22:10:00 30° ESE
Cosmos 1833 Rocket 4.1 22:11:23 19° E 22:11:23 19° E 22:14:49 10° NE
Cosmos 921 Rocket 4.4 22:08:06 10° N 22:11:50 25° ENE 22:12:53 23° E
USA 245 2.6 22:16:10 57° NE 22:16:10 57° NE 22:18:25 10° N
Cosmos 2181 Rocket 4.3 22:13:08 28° SSE 22:16:13 48° E 22:22:15 10° NNE
Cosmos 1606 Rocket 3.7 22:13:34 10° N 22:17:48 52° E 22:18:50 41° SE
YAOGAN 6 4.4 22:16:33 14° SSW 22:18:53 26° W 22:21:53 10° NW
YAOGAN 11 4.0 22:18:33 36° S 22:20:17 85° WSW 22:24:37 10° NNW
SL-24 DEB 4.3 22:21:38 40° SE 22:23:03 62° E 22:27:37 10° N
ERS-1 Rocket 3.8 22:21:30 18° SSW 22:24:55 46° W 22:29:45 10° NNW
Cosmos 1515 3.6 22:28:01 59° ESE 22:28:14 60° E 22:31:59 10° NNE
Cosmos 1726 Rocket 3.6 22:24:29 10° N 22:28:45 58° E 22:29:29 50° ESE
GENESIS II 4.3 22:25:27 10° NW 22:29:23 68° WSW 22:30:03 55° S
USA 267 3.8 22:28:34 10° ENE 22:34:03 32° ESE 22:34:03 32° ESE
H-2A R/B 1.9 22:33:29 44° SE 22:34:58 71° ENE 22:39:57 10° N
Cosmos 2058 Rocket 3.3 22:31:05 10° N 22:35:22 49° E 22:35:51 47° ESE
Intercosmos 24 4.3 22:33:06 10° NNW 22:36:56 52° W 22:37:49 40° SW
CARTOSAT-1 4.3 22:36:38 35° E 22:37:00 36° ENE 22:40:57 10° N
Cosmos 1295 Rocket 4.5 22:31:43 10° N 22:37:52 66° E 22:40:10 39° SSE
Cosmos 1025 Rocket 3.9 22:35:25 19° SW 22:38:11 46° W 22:42:18 10° N
MOS 1-B Rocket 4.4 22:36:34 24° SSW 22:39:52 55° W 22:45:57 10° NNW
Cosmos 1980 Rocket 4.2 22:36:44 10° NNE 22:40:02 15° NE 22:42:26 12° ENE
Meteor 1-15 Rocket 4.4 22:35:53 10° NNW 22:41:27 69° W 22:43:56 33° S
PSLV R/B 3.9 22:40:37 10° WNW 22:43:04 50° WNW 22:43:04 50° WNW
DMSP B5D2-2 4.0 22:41:03 10° NNE 22:46:19 66° ESE 22:47:34 49° SSE
Cosmos 962 Rocket 4.4 22:41:11 10° N 22:47:27 85° W 22:50:02 38° S
Cosmos 1624 Rocket 4.0 22:44:37 10° NNW 22:49:56 83° WSW 22:51:17 51° S
CENTAUR R/B 4.0 22:44:26 10° NW 22:51:47 39° WSW 22:56:31 22° SSW
SL-08 RB Rocket 4.2 22:52:51 40° SW 22:53:59 51° W 22:58:21 10° NNW
ARGOS 4.0 22:55:04 28° SSW 22:57:25 44° W 23:02:37 10° NNW
Landsat 7 3.7 23:00:33 65° S 23:01:14 83° WSW 23:06:02 10° NNW
H-2A R/B 2.1 23:01:56 67° E 23:02:06 68° ENE 23:06:37 10° N
SPOT 5 3.9 23:02:18 27° SW 23:03:28 31° W 23:07:21 10° NW
SL-8 Rocket 3.9 22:59:43 10° N 23:06:01 83° E 23:07:42 52° SSE
Cosmos 2056 Rocket 3.7 23:03:33 10° NNW 23:08:38 59° WSW 23:09:30 51° SW
Cosmos 2278 3.6 23:03:57 10° NNW 23:09:41 83° ENE 23:10:40 63° SE
Cosmos 2366 rocket 4.0 23:03:56 10° N 23:10:05 65° E 23:11:14 54° SE
Cosmos 2082 Rocket 2.1 23:09:49 62° SSE 23:10:34 70° ESE 23:16:13 10° NNE
Cosmos 1626 Rocket 3.9 23:14:24 54° NE 23:14:24 54° NE 23:17:57 10° NNE
Meteor 2-21 4.3 23:08:07 10° N 23:14:09 70° E 23:15:11 58° SE
Terra 1.7 23:16:05 80° SSW 23:16:18 84° WSW 23:21:05 10° NNW
Meteor 2-21 Rocket 4.5 23:11:01 10° N 23:17:00 59° E 23:17:50 54° ESE
CZ-4B R/B 3.5 23:14:16 10° NNE 23:19:06 62° E 23:19:06 62° E
Tiangong 2 3.9 23:17:13 10° W 23:17:53 15° W 23:17:53 15° W
COSMOS 2487 3.7 23:21:12 41° NNW 23:21:12 41° NNW 23:23:53 10° N
Spot 4 4.0 23:24:26 60° ENE 23:24:26 60° ENE 23:29:01 10° N
CZ-2C R/B 4.4 23:23:23 10° NE 23:26:18 19° ENE 23:26:18 19° ENE
Timation 2 Rocket 4.0 23:27:45 58° ESE 23:27:59 59° ESE 23:34:04 10° NNE
Cosmos 2369 3.7 23:22:35 10° NNW 23:28:17 70° WSW 23:28:55 64° SSW
Cosmos 1420 Rocket 4.3 23:24:48 10° N 23:29:59 55° ENE 23:30:03 55° ENE
Cosmos 1953 4.4 23:28:59 10° NNE 23:30:57 19° NE 23:30:57 19° NE
IGS 5A 4.2 23:33:12 49° WNW 23:33:12 49° WNW 23:36:44 10° NNW
ISS -1.1 23:30:09 10° WNW 23:32:41 20° NNW 23:35:13 10° NNE
SL-08 R/B 4.4 23:30:59 10° N 23:37:06 77° W 23:38:03 63° SSW
Cosmos 1697 Rocket 2.6 23:32:16 10° NNW 23:37:53 70° ENE 23:38:08 69° E
SL-16 R/B 4.3 23:34:30 10° NNE 23:37:59 16° NE 23:39:58 14° ENE
DELTA 2 DEB (DPAF) 4.5 23:39:21 62° NNE 23:39:21 62° NNE 23:43:11 10° N
Cosmos 1452 Rocket 3.5 23:35:40 10° NNW 23:40:54 77° W 23:40:54 77° W
Cosmos 1271 Rocket 4.2 23:38:28 10° N 23:40:49 32° NNE 23:40:49 32° NNE
Cosmos 2228 4.4 23:40:09 10° NNW 23:43:46 30° W 23:43:46 30° W
Cosmos 2218 Rocket 4.3 23:40:17 10° NNW 23:46:16 56° W 23:47:26 49° SW
Cosmos 1602 Rocket 4.3 23:47:45 49° NW 23:47:45 49° NW 23:51:28 10° N
Cosmos 1833 Rocket 3.2 23:53:01 44° WSW 23:54:23 54° WNW 23:59:55 10° NNE
